Vertical_Velocity
1 -0 -0 -3 6 -2 -3 -1 -6 9 -4 -6 6 2 2 1 -4 -8 -3 -3 -3 -3 -1 0 0 2 -0 0 -0 -2 -1 -3 -3 -4 -3 -6 -5 -5 -5 -4 -6 -5 -6 -2
5 -2 -3 1 -2 -2 -2 -1 -3 -3 2 -3 2 -1 0 0 1 -1 -1 0 1 0 -0 -0 -1 -1 1 -3 0 -1 -2 -2 -3 -2 -2 -2 -1 -1 -1 -0 -1 -1 1 -3
5 1 -5 4 -4 -5 -2 -1 -2 -1 0 0 -17 6 -1 -2 7 -1 0 0 -0 -1 1 1 -1 -2 -2 -2 -2 -2 -2 -2 -2 -1 0 -1 -1 -2 -2 -3 -3 -2 -2 -3
4 2 -5 6 -3 -4 -0 -1 -0 -3 -4 -3 -0 -7 -3 -0 -7 -1 -2 -1 0 -0 -1 0 -2 -4 -4 -2 -2 -1 -1 -1 -1 -2 -2 -0 0 1 1 -0 -1 -1 -1 0
-5 0 2 2 -0 -2 -1 2 -3 -3 -2 -4 4 -4 -1 1 -3 -0 0 -1 -1 -2 -1 -3 -2 -0 -0 -1 1 1 1 -1 -1 -0 -1 -1 -1 -0 1 -1 1 -0 1 0
2 -2 -2 -10 8 -4 3 2 3 1 -1 -4 -2 5 -9 -3 4 3 0 0 -1 -1 -1 1 0 -2 -1 2 -0 -3 -3 -1 -1 -2 -2 -1 -1 -0 -1 -2 -2 -3 1 -0
-2 -7 3 11 -13 2 -2 -2 -2 -1 1 2 -6 -3 -3 -1 0 -1 1 2 -3 -0 -1 -1 -2 -1 -0 -1 -3 -1 -3 -3 -2 -1 -3 -3 -5 -4 -4 -3 -1 -3 -5 3
-0 -5 -2 7 2 -0 -2 -1 1 -0 1 -0 -0 -3 -1 1 -3 -2 -1 -3 -1 -1 -2 -1 -0 -1 -3 -3 -4 -6 -6 -6 -5 -3 -3 -3 -4 -2 -2 -7 -7 -6 -6 -2
-1 7 -1 -3 -1 -2 1 -1 -3 0 -2 -1 -3 1 2 -1 -2 2 -1 -1 -0 -3 -3 -1 -2 -3 -2 -2 -3 -3 -3 -4 -3 -1 -1 -2 -5 -1 -1 1 -3 -1 -1 -2
-4 14 -9 1 -5 -2 1 -6 1 -2 -2 -4 -4 1 -0 -1 -2 2 1 -0 -1 -2 -2 -2 -2 -1 -0 -3 -4 -5 -3 -2 -1 -1 0 2 3 -3 -2 -5 -5 -6 -3 -3
4 7 -8 5 -6 1 -5 -1 -1 -1 -3 -4 -2 -0 -1 -2 1 0 0 -1 -2 -2 -1 -2 -1 -2 -4 -3 -4 -3 -3 -4 -1 -1 1 3 0 -10 -3 4 -9 -11 -1 -2
7 -2 -2 7 -5 -1 -2 1 -1 -2 -3 -3 -1 -0 -2 -1 0 1 -1 -1 -1 -0 -2 -1 -1 -4 -3 -4 -4 -5 -2 -1 2 -1 -2 -3 -5 4 13 -1 -4 -2 2 -9
1 1 -7 -1 -1 3 -1 1 -3 -1 -0 -2 -0 -1 -1 -2 2 -1 -0 -1 0 -2 -1 -1 -4 -2 -2 -3 -3 -3 -1 0 -0 -2 -3 -6 -2 -6 -13 23 2 -7 -1 -1
-8 -8 5 -5 -3 3 -3 1 -4 -0 -1 -1 -1 -1 -1 0 1 -1 -0 -0 -2 -2 -1 -3 -2 -1 -2 -2 -3 -2 1 -0 -2 -3 -6 -4 -6 -3 -5 -13 -9 4 6 -0
-0 -10 5 -7 2 -2 -2 1 -2 -1 -1 -1 -2 0 -1 3 -2 -2 -1 -2 -1 -0 -2 -3 -1 -3 -2 -3 -3 -1 -2 -4 -4 -4 -4 -5 -4 -5 -3 -4 -5 -4 0 1
-10 -3 0 -2 -1 -1 -1 -0 -2 0 -0 -3 1 -0 0 1 -3 0 -1 -1 -2 -1 -3 -2 -4 -2 -3 -1 -1 -1 0 -2 -4 -2 -3 -3 -3 -2 -3 -4 -3 -4 -4 -3
-5 2 -7 -1 -1 0 -0 -2 -3 1 -3 -0 0 -1 2 -1 -1 -1 0 -1 1 -2 -1 -1 -1 -1 -0 -3 -2 -1 -1 -2 -1 -3 -4 -4 -3 -5 -3 -3 -4 -3 -3 -2
-4 -3 -1 -3 1 -0 -1 -4 0 -0 -3 1 -0 1 1 -0 -1 0 -1 -0 -1 0 -4 -3 -3 -5 -3 -2 -2 -2 -3 -4 -3 -3 -1 -2 -4 -3 -3 -4 -3 -2 -1 -1
-3 -2 -2 3 -3 -1 -3 -1 1 -1 -1 -0 -0 2 0 -1 -1 -0 -0 -1 -1 -3 -1 -3 -3 -4 -4 -3 -2 -3 -2 -0 -2 -2 -2 -3 -3 -3 -3 -3 -3 -3 -3 -2
-2 0 -1 -2 -1 -3 -2 1 0 -2 0 -0 2 1 -0 -0 0 -0 1 -3 1 0 -1 -4 -4 -2 -2 -2 -3 -4 -2 -1 -2 -2 -3 -3 -2 -3 -2 -2 -4 -2 -2 -2
-3 -0 0 -1 -2 -2 1 0 -1 -1 1 2 2 0 0 1 0 -1 -0 3 0 -1 -4 -1 -2 -2 -1 -3 -3 -2 -2 -1 -2 -2 -2 -2 -1 -2 -2 -3 -2 -3 -2 -2
1 1 -0 -1 -2 1 -1 0 -1 1 1 2 1 -0 1 0 0 -1 -2 2 -1 -2 -3 -3 -4 -3 -2 -3 -3 -2 -2 -2 -2 -2 -1 -2 -2 -0 -1 -2 -1 -2 -2 -0
0 -0 -3 -1 -1 -1 1 -1 1 1 2 2 -0 0 0 0 0 1 4 -3 -2 -3 -2 -2 -2 -1 -2 -5 -3 -2 -2 -2 -2 -3 -2 -2 -3 -1 0 -1 -2 -4 -1 1
-0 1 1 2 -2 -1 0 1 1 1 2 1 -0 0 1 0 -1 0 -2 -1 -2 -2 -4 -4 -4 -5 -3 -3 -1 -2 -3 -3 -2 -2 -2 -4 -3 -2 -1 -1 -0 -2 -0 1
3 3 1 -3 -0 1 1 1 1 2 1 1 -0 0 0 -0 1 -1 -0 -1 -2 -1 -2 -3 -3 -3 -3 -2 -2 -2 -2 -2 -3 -2 -2 -2 -2 -2 -1 -1 -2 -3 -1 1
1 0 -1 1 1 1 1 1 1 1 2 -0 0 -0 0 0 -1 1 -2 -1 -1 -1 -2 -2 -2 -2 -2 -3 -1 -1 -2 -1 -1 -2 -3 -2 -1 -2 -1 0 -0 -0 -0 -1
0 1 1 1 1 2 2 1 1 2 0 0 -0 -0 1 -1 -0 -1 -1 -0 0 -1 -1 -2 -2 -2 -1 -2 -1 -0 -2 -1 -1 -1 -2 -2 -1 -1 -1 -0 -0 -0 1 -1
Height
5757 5756 5755 5755 5758 5755 5752 5751 5748 5748 5744 5739 5736 5731 5726 5720 5716 5711 5705 5700 5694 5687 5681 5674 5667 5661 5654 5647 5641 5634 5628 5621 5614 5606 5598 5590 5582 5573 5564 5556 5548 5541 5534 5527
5750 5748 5747 5749 5751 5748 5746 5744 5742 5739 5737 5730 5727 5724 5720 5715 5710 5704 5698 5691 5685 5678 5671 5664 5656 5649 5643 5636 5630 5623 5615 5606 5597 5588 5578 5568 5559 5550 5541 5532 5523 5515 5508 5501
5742 5740 5739 5744 5743 5740 5739 5736 5734 5732 5729 5723 5717 5714 5711 5707 5702 5695 5688 5682 5675 5667 5660 5652 5646 5639 5632 5625 5618 5609 5600 5590 5580 5570 5560 5548 5537 5527 5517 5508 5498 5490 5482 5474
5733 5732 5731 5736 5736 5733 5731 5729 5727 5724 5721 5717 5712 5707 5702 5698 5691 5686 5680 5672 5665 5657 5649 5643 5636 5629 5621 5612 5603 5594 5584 5573 5562 5550 5538 5525 5514 5503 5493 5483 5474 5465 5458 5449
5724 5725 5725 5726 5728 5725 5723 5722 5718 5715 5712 5708 5706 5700 5695 5690 5683 5677 5670 5662 5654 5647 5641 5633 5626 5617 5608 5599 5589 5578 5567 5554 5541 5528 5516 5504 5493 5482 5471 5461 5452 5443 5433 5425
5717 5717 5717 5720 5719 5716 5715 5713 5710 5707 5704 5699 5695 5691 5684 5679 5673 5666 5659 5651 5643 5637 5630 5623 5614 5604 5595 5585 5574 5562 5549 5535 5520 5507 5495 5484 5471 5460 5449 5438 5428 5418 5410 5400
5708 5708 5710 5714 5709 5709 5706 5706 5700 5697 5695 5691 5687 5683 5677 5670 5663 5656 5648 5641 5634 5627 5620 5611 5602 5593 5582 5571 5557 5543 5529 5514 5501 5488 5475 5462 5451 5439 5427 5416 5406 5397 5387 5377
5700 5701 5703 5704 5701 5700 5696 5693 5692 5689 5685 5682 5678 5674 5667 5661 5655 5647 5639 5633 5625 5618 5610 5601 5591 5581 5569 5555 5540 5525 5511 5498 5485 5471 5457 5444 5432 5420 5408 5394 5383 5371 5360 5352
5694 5695 5696 5693 5690 5688 5686 5685 5682 5679 5676 5673 5669 5663 5657 5651 5645 5637 5630 5623 5616 5608 5599 5590 5580 5568 5554 5539 5524 5510 5496 5482 5469 5455 5442 5428 5414 5401 5388 5372 5358 5349 5338 5328
5685 5689 5686 5682 5681 5678 5678 5675 5674 5670 5667 5664 5659 5653 5647 5642 5635 5627 5621 5614 5606 5598 5589 5579 5568 5555 5541 5526 5511 5496 5481 5468 5454 5441 5428 5414 5398 5382 5366 5353 5340 5328 5315 5305
5677 5680 5675 5674 5671 5671 5668 5668 5665 5662 5659 5655 5650 5644 5638 5632 5625 5619 5613 5606 5598 5589 5579 5568 5556 5542 5528 5513 5496 5482 5468 5454 5440 5426 5413 5401 5384 5364 5350 5336 5318 5305 5295 5282
5669 5670 5666 5666 5662 5661 5659 5659 5656 5654 5651 5647 5641 5635 5630 5623 5617 5611 5605 5598 5589 5580 5570 5557 5544 5531 5515 5499 5483 5469 5455 5441 5428 5414 5400 5384 5370 5359 5337 5320 5307 5289 5273 5261
5660 5659 5657 5657 5653 5653 5652 5650 5647 5645 5642 5637 5632 5627 5621 5615 5609 5603 5597 5589 5581 5571 5560 5547 5534 5520 5503 5487 5471 5457 5442 5430 5416 5401 5386 5370 5354 5337 5325 5313 5292 5274 5258 5247
5649 5648 5647 5644 5643 5643 5641 5640 5638 5636 5633 5628 5623 5618 5612 5607 5601 5596 5589 5581 5572 5562 5550 5538 5524 5509 5492 5475 5461 5446 5433 5419 5404 5389 5373 5357 5341 5326 5309 5291 5276 5265 5250 5235
5641 5637 5637 5634 5635 5632 5632 5631 5630 5628 5624 5619 5615 5609 5604 5599 5593 5588 5581 5573 5564 5553 5541 5529 5514 5497 5481 5465 5452 5438 5424 5409 5395 5379 5363 5347 5332 5316 5300 5283 5266 5250 5237 5226
5628 5627 5627 5626 5625 5624 5623 5622 5621 5619 5615 5611 5606 5601 5597 5592 5586 5580 5573 5565 5555 5544 5533 5520 5503 5487 5471 5457 5444 5429 5415 5401 5386 5371 5356 5340 5325 5310 5295 5278 5261 5245 5229 5217
5618 5617 5616 5615 5616 5615 5614 5613 5612 5610 5607 5603 5598 5594 5589 5584 5578 5573 5565 5556 5547 5536 5524 5510 5495 5479 5463 5450 5435 5421 5408 5394 5379 5364 5348 5333 5319 5305 5291 5276 5259 5242 5227 5214
5607 5607 5605 5605 5605 5606 5605 5604 5603 5601 5598 5594 5590 5586 5582 5576 5571 5565 5557 5548 5538 5528 5515 5502 5486 5471 5457 5442 5428 5415 5401 5387 5373 5358 5343 5329 5316 5303 5289 5275 5259 5243 5228 5214
5595 5594 5595 5595 5595 5596 5596 5595 5595 5592 5589 5585 5582 5578 5574 5569 5564 5557 5549 5540 5530 5519 5507 5494 5478 5465 5450 5436 5422 5408 5395 5382 5368 5353 5339 5326 5314 5301 5288 5275 5260 5245 5230 5216
5584 5584 5584 5585 5587 5587 5587 5587 5586 5583 5580 5577 5574 5570 5566 5562 5556 5550 5542 5532 5522 5511 5499 5485 5472 5458 5444 5430 5416 5402 5390 5377 5364 5350 5336 5323 5312 5300 5288 5275 5261 5248 5233 5220
5572 5573 5574 5576 5578 5578 5578 5578 5576 5573 5571 5569 5566 5562 5559 5554 5549 5542 5534 5525 5514 5503 5492 5479 5466 5452 5438 5424 5410 5397 5385 5373 5359 5347 5334 5322 5310 5299 5288 5275 5262 5250 5237 5224
5561 5563 5566 5568 5569 5570 5569 5568 5566 5565 5563 5561 5558 5555 5551 5547 5541 5534 5526 5517 5507 5496 5485 5472 5460 5446 5433 5418 5405 5391 5379 5367 5356 5343 5331 5319 5309 5299 5288 5276 5264 5252 5240 5228
5552 5555 5558 5560 5560 5561 5560 5559 5557 5557 5555 5553 5551 5548 5544 5539 5534 5526 5518 5509 5499 5489 5478 5466 5454 5441 5427 5414 5400 5387 5375 5364 5352 5340 5328 5317 5306 5297 5287 5277 5265 5253 5242 5231
5546 5548 5549 5550 5551 5551 5550 5550 5550 5549 5548 5545 5543 5540 5536 5532 5526 5518 5510 5501 5492 5482 5471 5460 5448 5435 5422 5409 5396 5384 5371 5359 5349 5338 5326 5315 5304 5295 5286 5276 5266 5255 5244 5233
5538 5539 5541 5541 5542 5542 5542 5543 5542 5542 5540 5538 5535 5533 5529 5524 5518 5510 5502 5494 5485 5475 5465 5454 5442 5430 5417 5405 5392 5379 5367 5356 5345 5335 5324 5313 5303 5293 5285 5276 5266 5256 5246 5236
5530 5532 5532 5533 5534 5535 5535 5535 5535 5533 5532 5530 5528 5525 5521 5516 5509 5502 5495 5487 5478 5469 5459 5448 5436 5425 5413 5400 5388 5375 5364 5353 5342 5332 5322 5312 5301 5291 5283 5275 5266 5257 5248 5238
5523 5524 5524 5526 5527 5528 5528 5528 5527 5526 5524 5523 5521 5517 5513 5507 5501 5494 5487 5479 5471 5462 5452 5442 5430 5420 5408 5396 5383 5372 5360 5350 5339 5329 5319 5310 5300 5290 5281 5273 5266 5258 5249 5240